Content
SEND FEEDBACK

Daily
Averages
Monthly
Summary
United States of America

GREENLAND, ARKANSAS


Home > North America > United States > Arkansas
Elevation: 1250 feet     Latitude: 36 00N     Longitude: 094 10W

WEATHER
 
SELECT A DAY
Number of Records: 193,636;   Date Range: 1/1/95 - 7/20/14
 
SHARE

PRINT THIS DATA

[ ← Previous Day ]
WEATHER ALMANAC - FEBRUARY 13, 2013
[ Next Day → ]
[ °C ]   °F
Weather ElementAverageHighLow
Temperature38.3 °F50 °F (2:53 pm)32 °F (10:53 pm)
Dewpoint27.8 °F36 °F (10:53 am) (7:00 pm)
Humidity80 %100 % (4:53 am)48 % (3:53 pm)
Barometer29.99 in30.05 in (8:53 am)29.94 in (3:01 am)
Wind Speed7 mph13.8 mph (2:53 pm)
Wind Gust19.6 mph (1:53 pm)
Weather ElementAverage
Visibility9.1 mi
Wind DirectionWSW (235.6 °)

Weather ElementTotal
Precipitation0.02 in
Heating Degree Days24 (Base 65)
Averaged from 27 records on February 13, 2013
WEATHER CONDITIONS BREAKOUT
WIND DIRECTION BREAKOUT
WEATHER BY HOUR - FEBRUARY 13, 2013
[ °C ]   °F
Local TimeTemperatureDewpointHumidityBarometerVisibilityWind DirectionWind SpeedGust SpeedPrecipitationEventsConditions
1:53 AM34.0 °F0.0 °F29.96 in10.0 miCalm0.00 inOvercast
2:53 AM33.1 °F0.0 °F29.96 in8.0 miNW (320°)5.8 mphOvercast
3:01 AM33.8 °F0.0 °F29.94 in7.0 miNNW (330°)3.5 mphOvercast
3:53 AM33.1 °F0.0 °F29.97 in10.0 miNNW (330°)5.8 mphOvercast
4:53 AM33.1 °F33.1 °F100 %29.98 in10.0 miNW (320°)9.2 mphOvercast
5:13 AM33.8 °F33.8 °F100 %29.97 in9.0 miNNW (330°)8.1 mphOvercast
5:53 AM33.1 °F33.1 °F100 %29.99 in8.0 miCalmOvercast
6:53 AM33.1 °F33.1 °F100 %30.02 in5.0 miWest (270°)3.5 mphOvercast
7:18 AM33.8 °F33.8 °F100 %30.01 in4.0 miWNW (290°)4.6 mphOvercast
7:53 AM33.1 °F33.1 °F100 %30.04 in4.0 miWest (280°)4.6 mphOvercast
8:53 AM35.1 °F35.1 °F100 %30.05 in10.0 miWest (260°)5.8 mphOvercast
9:53 AM37.0 °F35.1 °F93 %30.05 in10.0 miSW (230°)6.9 mphScattered Clouds
10:53 AM42.1 °F36.0 °F79 %30.03 in10.0 miSSW (210°)11.5 mphScattered Clouds
11:50 AM44.6 °F35.6 °F71 %30.01 in10.0 miSW (230°)10.4 mph0.01 inMostly Cloudy
11:53 AM45.0 °F36.0 °F71 %30.02 in10.0 miSW (230°)11.5 mph0.01 inMostly Cloudy
12:53 PM46.0 °F35.1 °F66 %30.00 in10.0 miWSW (250°)11.5 mphScattered Clouds
1:53 PM46.9 °F34.0 °F61 %29.98 in10.0 miWSW (240°)9.2 mph19.6 mphClear
2:53 PM50.0 °F33.1 °F52 %29.96 in10.0 miWSW (250°)13.8 mph17.3 mphClear
3:53 PM50.0 °F30.9 °F48 %29.96 in10.0 miWest (260°)9.2 mphClear
4:53 PM48.9 °F30.0 °F48 %29.96 in10.0 miWest (260°)8.1 mphClear
5:53 PM45.0 °F30.0 °F56 %29.96 in10.0 miWSW (240°)5.8 mphClear
6:53 PM42.1 °F30.0 °F62 %29.97 in10.0 miWSW (240°)6.9 mphClear
7:53 PM36.0 °F30.9 °F82 %29.98 in10.0 miSouth (190°)6.9 mphClear
8:53 PM34.0 °F30.0 °F85 %29.99 in10.0 miSSW (200°)5.8 mphClear
9:53 PM34.0 °F30.0 °F85 %29.99 in10.0 miSSW (200°)5.8 mphClear
10:53 PM32.0 °F30.0 °F92 %30.00 in10.0 miSSW (200°)8.1 mphClear
11:53 PM32.0 °F28.9 °F88 %29.99 in10.0 miSSW (200°)6.9 mphClear
Hourly data recorded from KFYV, located miles away from Greenland, Arkansas







STORIES FROM OUR PARTNERS